STARLINK-1122, 44949

Orbit data source: Space-Track

STARLINK-1122, 44949 is a payload satellite owned by SpaceX/Seattle (US) in LEO that was launched on Tue, 07 Jan 2020 UTC via an FALCON 9 launch vehicle from the Air Force Eastern Test Range (AFETR). Payloads include a variety of satellites, spacecraft, and rockets equipped with specific instruments for various scientific and technological missions. These include communications satellites like Starlink; space stations such as the ISS; scientific satellites like the Hubble; Earth observation satellites from companies like Planet Labs, Umbra, and HawkEye 360; GPS; miniature CubeSats for education and research; and military/defense satellites.

Loading next visibility...
STARLINK-1122 details
Identifier
44949, 2020-001AM
Orbit
LEO
Last TLE update5 hours ago
Origin
Flag of USSpaceX/Seattle (US)
ManufacturerSpaceX/Seattle
MissionOperational Commercial Communications
Bus & MotorSTARLINK, Unknown motor
Mass260 kg wet, ~248 kg dry
Launch date (UTC)
2020-01-07 (5 years ago)
Launch vehicle
FALCON 9
Launch site
Air Force Eastern Test Range (AFETR)
Object type
Payload
Rocket body
Debris
Shape & HBRBox + 1 Pan, 8.86 m
Radar Cross Section13.562 m², Large (>1 m²)

Expand to show TLE details & history

TLE from 5 hours ago
0 STARLINK-1122
1 44949U 20001AM  25018.75847475 -.00007158  00000-0 -46204-3 0  9998
2 44949  53.0548  29.3170 0001496  78.0820 282.0337 15.06406591277585
Epoch: 2025-01-18T18:12Z
Definitive object data (Epoch: 2025-01-18T18:12:12.218Z)
Latitude0.00001°
Longitude-2.13706°
Altitude547.855 km
Speed7.589 km/s
True Right ascension01h 57m 16s
True Declination0° 00' 00"
Sunlit
Object was in daylight at TLE epoch
Visualization TLE readout
Latitude51.55509°
Longitude67.31936°
Altitude552.339 km
Speed7.592 km/s
Apparent Right ascension09h 37m 24s
Apparent Declination11° 03' 14"
Sunlit
Object is in full shadow
Visualization observer readout
Local Sidereal Time00:13:27
Azimuth44.15° NE
Elevation-27.509°
Doppler factor1
Orbital elements
Apogee altitude548.498 km
Perigee altitude546.426 km
Semi-major axis6,925.599 km
Eccentricity0.0001496
Inclination53.0548°
RAAN29.317°
Arg. of periapsis78.082°
True anomaly282.01693°
Mean anomaly282.0337°
Eccentric anomaly282.02532°
Mean motion3.7658 °/min
BSTAR-0.00046204
Orbital period95.6 mins
Loading maneuver chart data...

STARLINK-1122 Visibility forecast

Observer location: undefined°, undefined

Span
Click to sort rows by Start time (UTC) header in descending order
Start Az.
Max El. time (UTC)
Max El. Az.
Max El.
End time (UTC)
End Az.
6 mins2025-01-19 02:18:28.474Z178.534° S2025-01-19 02:21:28.474Z129.803° SE20.394°2025-01-19 02:24:28.474Z79.762° E
6 mins2025-01-19 03:58:28.474Z256.467° W2025-01-19 04:00:28.474Z306.95° NW37.864°2025-01-19 04:04:28.474Z41.457° NE
4 mins2025-01-19 05:39:28.474Z317.704° NNW2025-01-19 05:41:28.474Z352.291° N15.761°2025-01-19 05:43:28.474Z22.687° NE
5 mins2025-01-19 09:00:28.474Z341.473° N2025-01-19 09:02:28.474Z24.906° NE25.519°2025-01-19 09:05:28.474Z82.914° E
6 mins2025-01-19 10:39:28.474Z295.135° NW2025-01-19 10:42:28.474Z212.071° SW37.47°2025-01-19 10:45:28.474Z152.306° SSE
|